KCVG Airport Diagram

We have created a template for each of the higher traffic airports in the vZID airspace. They include KCMH, KCRW, KCVG, KDAY, KIND, KLEX and KSDF. You wil find usefull information including the airport diagram, weather, and specific airport procedures.

KCVG Weather

[Source: ADDS]
METAR
KCVG 240752Z 06008KT 8SM -RA SCT055 OVC070 11/09 A2998 RMK AO2 SLP148 P0002 T01110094 =
TAF
KCVG 240744Z 2408/2512 09008KT P6SM -SHRA OVC040 FM241200 09012KT 3SM -SHRA BR BKN015 OVC040 FM241800 07012KT 5SM BR VCSH SCT009 OVC012 FM242100 05008KT 5SM BR VCSH OVC009 FM250200 01007KT P6SM OVC006 =

KCVG Operations

Calm Wind Configuration is Landing runways 36C and 36R, departing runway 27.

You can expect  this configuration up to and including a 10 knot tailwind.

The Center runway is the old 18R/36L in the default scenery. Additionally, runway 9/27 was lengthened to 12,000 feet when the west runway (18R/36L) was added.

Where parallel taxiways exist, inner taxiway is used by inbound traffic and outer taxiway is used by outbound traffic.

FDX & UPS use the ramp area at Terminal 1.

New Scenery is available at FlightSim.com.

On initial contact, arriving aircraft should notify the the controller which scenery they have.

 

JSN Epic template designed by JoomlaShine.com